Location: Unspecified
(49.2170°N, 0.0000°E)
Time: 10:16:32
(UTC+00:00)

Transit 2A - Pass Details

Date: 26 June 2019
Orbit: 600 x 959 km, 66.7° (Epoch: 16 October)

Event Time Altitude Azimuth Distance (km) Brightness Sun altitude
Rises 08:35:07 0° 320° (NW) 3,435 9.0 42.1°
Reaches altitude 10° 08:37:50 10° 313° (NW) 2,437 8.3 42.5°
Maximum altitude 08:42:58 39° 246° (WSW) 1,147 7.0 43.3°
Drops below altitude 10° 08:47:37 10° 179° (S) 2,197 8.7 44.0°
Sets 08:49:57 0° 171° (S) 3,057 9.4 44.4°
